Tracking 34305 objects as of 6-Jun-2026
HD Live streaming from Space Station
objects crossing your sky now

INTELSAT 601

Track INTELSAT 601 now!
INTELSAT 601 is classified as:


NORAD ID: 21765
Int'l Code: 1991-075A
Perigee: 35,978.1 km
Apogee: 35,995.8 km
Inclination: 13.4 °
Period: 1,446.0 minutes
Semi major axis: 42357 km
RCS: 16.4798 m2 (large)
Launch date: October 29, 1991
Source: International Telecommunications Satellite Organization (ITSO)
Launch site: FRENCH GUIANA (FRGUI)

64 C-band, 24 Ku-band; Broadcasting, business services, direct-to-home TV broadcasting, telecommunications, VSAT networks; Indian Ocean region.
Your satellite tracking list
Your tracking list is empty




NASA's NSSDC Master Catalog

Two Line Element Set (TLE):
1 21765U 91075A   26156.61504913 -.00000049  00000-0  00000-0 0  9996
2 21765  13.3774  17.0227 0002084 327.6810  32.3282  0.99586470126252
Source of the keplerian elements: AFSPC